Tracking 27419 objects as of 10-Jun-2023
HD Live streaming from Space Station
objects crossing your sky now

COSMOS 1275 DEB

Track COSMOS 1275 DEB now!
10-day predictions


NORAD ID: 12671
Int'l Code: 1981-053AB
Perigee: 870.3 km
Apogee: 894.6 km
Inclination: 82.9 °
Period: 102.5 minutes
Semi major axis: 7253 km
RCS: 0.0812 m2 (small)
Launch date: June 4, 1981
Source: Commonwealth of Independent States (former USSR) (CIS)
Launch site: PLESETSK MISSILE AND SPACE COMPLEX (PKMTR)

Note: This is SATELLITE DEBRIS
Your satellite tracking list
Your tracking list is empty




NASA's NSSDC Master Catalog

Two Line Element Set (TLE):
1 12671U 81053AB  23160.75112684  .00001759  00000-0  10754-2 0  9991
2 12671  82.9123 338.3024 0016789 284.7967  75.1346 14.05359698124497
Source of the keplerian elements: AFSPC